This is the latest recevied weather packets stored in our database for station/object W6JCZ-13. If no packets are shown the sender has not sent any weather packets the latest 10 day(s).
| Time | Temp. | Humidity | Pressure | Rain* | Wind** | Luminosity | Snow |
|---|---|---|---|---|---|---|---|
| 1777660217 | 23.33° C | 60% | 1012.3 hPa | 0 mm | - | - | - |
| 1777659617 | 23.33° C | 57% | 1012.3 hPa | 0 mm | - | - | - |
| 1777659017 | 22.78° C | 59% | 1012.3 hPa | 0 mm | - | - | - |
| 1777658417 | 22.22° C | 62% | 1012.4 hPa | 0 mm | - | - | - |
| 1777657817 | 22.22° C | 62% | 1012.4 hPa | 0 mm | - | - | - |
| 1777657217 | 21.11° C | 64% | 1012.4 hPa | 0 mm | - | - | - |
| 1777656617 | 21.11° C | 64% | 1012.4 hPa | 0 mm | - | - | - |
| 1777656016 | 21.11° C | 65% | 1012.5 hPa | 0 mm | - | - | - |
| 1777655416 | 20.56° C | 65% | 1012.4 hPa | 0 mm | - | - | - |
| 1777654817 | 20° C | 68% | 1012.4 hPa | 0 mm | - | - | - |
| 1777654216 | 19.44° C | 68% | 1012.5 hPa | 0 mm | - | - | - |
| 1777653616 | 18.89° C | 71% | 1012.5 hPa | 0 mm | - | - | - |
| 1777653016 | 18.33° C | 72% | 1012.4 hPa | 0 mm | - | - | - |
| 1777652417 | 18.33° C | 72% | 1012.6 hPa | 0 mm | - | - | - |
| 1777651817 | 18.33° C | 74% | 1012.4 hPa | 0 mm | - | - | - |
| 1777651216 | 17.78° C | 73% | 1012.3 hPa | 0 mm | - | - | - |
| 1777650616 | 17.22° C | 75% | 1012.3 hPa | 0 mm | - | - | - |
| 1777650016 | 17.22° C | 74% | 1012.3 hPa | 0 mm | - | - | - |
| 1777649416 | 16.67° C | 76% | 1012.2 hPa | 0 mm | - | - | - |
| 1777648816 | 16.11° C | 77% | 1012.1 hPa | 0 mm | - | - | - |
| 1777648216 | 15.56° C | 79% | 1012.1 hPa | 0 mm | - | - | - |
| 1777647616 | 14.44° C | 81% | 1012 hPa | 0 mm | - | - | - |
| 1777647016 | 13.89° C | 86% | 1011.9 hPa | 0 mm | - | - | - |
| 1777646416 | 12.78° C | 88% | 1011.7 hPa | 0 mm | - | - | - |
| 1777645816 | 12.22° C | 90% | 1011.6 hPa | 0 mm | - | - | - |
* Rain latest hour (hover to see other rain measurements)
** Current wind speed in m/s (hover to see current wind gust speed)